• In Italy
  • List of Countries
  • For 7 days
  • Water Temperature
  • Satellite Maps
  • Weather Map
  • Weather Widgets
  • user-avatar
    Login

    Hourly Weather Bangalore

    Today, 17 January, Wednesday

    Time Temperature Precipitation Wind Pressure Humidity
    00:00 +20°C° 0 mm 2 mps 684 mmHg 66%
    01:00 +20°C° 0 mm 2 mps 683 mmHg 70%
    02:00 +19°C° 0 mm 2 mps 683 mmHg 75%
    03:00 +19°C° 0 mm 2 mps 683 mmHg 78%
    04:00 +18°C° 0 mm 2 mps 683 mmHg 80%
    05:00 +18°C° 0 mm 2 mps 683 mmHg 83%
    06:00 +19°C° 0 mm 2 mps 684 mmHg 78%
    07:00 +20°C° 0 mm 2 mps 684 mmHg 74%
    08:00 +21°C° 0 mm 2 mps 685 mmHg 69%
    09:00 +24°C° 0 mm 2 mps 685 mmHg 58%
    10:00 +26°C° 0 mm 2 mps 685 mmHg 47%
    11:00 +28°C° 0 mm 3 mps 686 mmHg 36%
    12:00 +29°C° 0 mm 3 mps 686 mmHg 32%
    13:00 +29°C° 0 mm 4 mps 685 mmHg 29%
    14:00 +30°C° 0 mm 4 mps 684 mmHg 26%
    15:00 +29°C° 0 mm 4 mps 684 mmHg 28%
    16:00 +29°C° 0 mm 3 mps 684 mmHg 29%
    17:00 +28°C° 0 mm 3 mps 684 mmHg 31%
    18:00 +27°C° 0 mm 3 mps 684 mmHg 35%
    19:00 +25°C° 0 mm 3 mps 684 mmHg 40%
    20:00 +24°C° 0 mm 3 mps 684 mmHg 44%
    21:00 +22°C° 0 mm 3 mps 684 mmHg 49%
    22:00 +21°C° 0 mm 3 mps 684 mmHg 53%
    23:00 +20°C° 0 mm 3 mps 684 mmHg 58%

    Tomorrow, 18 January, Thursday

    Time Temperature Precipitation Wind Pressure Humidity
    00:00 +19°C° 0 mm 3 mps 684 mmHg 60%
    01:00 +18°C° 0 mm 2 mps 683 mmHg 63%
    02:00 +18°C° 0 mm 2 mps 683 mmHg 65%
    03:00 +17°C° 0 mm 2 mps 683 mmHg 67%
    04:00 +17°C° 0 mm 2 mps 683 mmHg 68%
    05:00 +17°C° 0 mm 2 mps 683 mmHg 70%
    06:00 +18°C° 0 mm 2 mps 684 mmHg 66%
    07:00 +19°C° 0 mm 2 mps 685 mmHg 62%
    08:00 +20°C° 0 mm 2 mps 685 mmHg 58%
    09:00 +22°C° 0 mm 3 mps 686 mmHg 49%
    10:00 +25°C° 0 mm 4 mps 686 mmHg 40%
    11:00 +28°C° 0 mm 5 mps 686 mmHg 30%
    12:00 +28°C° 0 mm 5 mps 685 mmHg 28%
    13:00 +29°C° 0 mm 5 mps 685 mmHg 25%
    14:00 +30°C° 0 mm 5 mps 684 mmHg 22%
    15:00 +29°C° 0 mm 4 mps 684 mmHg 24%
    16:00 +28°C° 0 mm 4 mps 684 mmHg 26%
    17:00 +28°C° 0 mm 4 mps 684 mmHg 28%
    18:00 +26°C° 0 mm 4 mps 684 mmHg 32%
    19:00 +24°C° 0 mm 3 mps 684 mmHg 37%
    20:00 +21°C° 0 mm 3 mps 685 mmHg 41%
    21:00 +20°C° 0 mm 3 mps 685 mmHg 48%
    22:00 +20°C° 0 mm 3 mps 685 mmHg 55%
    23:00 +19°C° 0 mm 3 mps 685 mmHg 62%

    Day after tomorrow, 19 January, Friday

    Time Temperature Precipitation Wind Pressure Humidity
    00:00 +18°C° 0 mm 3 mps 684 mmHg 67%
    01:00 +17°C° 0 mm 2 mps 684 mmHg 73%
    02:00 +17°C° 0 mm 2 mps 683 mmHg 79%
    03:00 +16°C° 0 mm 2 mps 683 mmHg 80%
    04:00 +16°C° 0 mm 2 mps 683 mmHg 81%
    05:00 +15°C° 0 mm 2 mps 683 mmHg 82%
    06:00 +17°C° 0 mm 2 mps 684 mmHg 74%
    07:00 +18°C° 0 mm 2 mps 685 mmHg 65%
    08:00 +19°C° 0 mm 2 mps 685 mmHg 56%
    09:00 +22°C° 0 mm 3 mps 686 mmHg 45%
    10:00 +25°C° 0 mm 4 mps 686 mmHg 35%
    11:00 +27°C° 0 mm 4 mps 687 mmHg 24%
    12:00 +28°C° 0 mm 4 mps 686 mmHg 22%
    13:00 +28°C° 0 mm 4 mps 685 mmHg 21%
    14:00 +29°C° 0 mm 4 mps 684 mmHg 19%
    15:00 +29°C° 0 mm 4 mps 684 mmHg 22%
    16:00 +28°C° 0 mm 4 mps 684 mmHg 24%
    17:00 +27°C° 0 mm 4 mps 684 mmHg 27%
    18:00 +25°C° 0 mm 3 mps 684 mmHg 34%
    19:00 +24°C° 0 mm 3 mps 685 mmHg 41%
    20:00 +21°C° 0 mm 3 mps 685 mmHg 47%
    21:00 +20°C° 0 mm 3 mps 685 mmHg 55%
    22:00 +19°C° 0 mm 3 mps 685 mmHg 63%
    23:00 +18°C° 0 mm 3 mps 684 mmHg 70%

    20 January, Saturday

    Time Temperature Precipitation Wind Pressure Humidity
    00:00 +18°C° 0 mm 3 mps 684 mmHg 74%
    01:00 +17°C° 0 mm 2 mps 683 mmHg 77%
    02:00 +17°C° 0 mm 2 mps 683 mmHg 81%
    03:00 +16°C° 0 mm 2 mps 682 mmHg 78%
    04:00 +16°C° 0 mm 2 mps 682 mmHg 76%
    05:00 +16°C° 0 mm 2 mps 682 mmHg 73%
    06:00 +17°C° 0 mm 2 mps 683 mmHg 66%
    07:00 +18°C° 0 mm 2 mps 684 mmHg 59%
    08:00 +19°C° 0 mm 3 mps 685 mmHg 51%
    09:00 +21°C° 0 mm 3 mps 685 mmHg 42%
    10:00 +25°C° 0 mm 3 mps 685 mmHg 34%
    11:00 +27°C° 0 mm 4 mps 686 mmHg 25%
    12:00 +27°C° 0 mm 4 mps 685 mmHg 23%
    13:00 +28°C° 0 mm 4 mps 684 mmHg 22%
    14:00 +29°C° 0 mm 3 mps 683 mmHg 21%
    15:00 +28°C° 0 mm 3 mps 683 mmHg 24%
    16:00 +28°C° 0 mm 3 mps 683 mmHg 26%
    17:00 +27°C° 0 mm 3 mps 683 mmHg 29%
    18:00 +25°C° 0 mm 3 mps 683 mmHg 36%
    19:00 +24°C° 0 mm 3 mps 684 mmHg 43%
    20:00 +21°C° 0 mm 3 mps 684 mmHg 50%
    21:00 +20°C° 0 mm 3 mps 684 mmHg 56%
    22:00 +19°C° 0 mm 3 mps 684 mmHg 62%
    23:00 +18°C° 0 mm 3 mps 684 mmHg 69%

    21 January, Sunday

    Time Temperature Precipitation Wind Pressure Humidity
    00:00 +18°C° 0 mm 3 mps 683 mmHg 73%
    01:00 +17°C° 0 mm 2 mps 682 mmHg 78%
    02:00 +17°C° 0 mm 2 mps 682 mmHg 82%
    03:00 +16°C° 0 mm 2 mps 682 mmHg 83%
    04:00 +16°C° 0 mm 2 mps 682 mmHg 83%
    05:00 +16°C° 0 mm 1 mps 682 mmHg 84%
    06:00 +17°C° 0 mm 2 mps 683 mmHg 73%
    07:00 +18°C° 0 mm 2 mps 684 mmHg 63%
    08:00 +20°C° 0 mm 2 mps 684 mmHg 52%
    09:00 +22°C° 0 mm 3 mps 685 mmHg 42%
    10:00 +25°C° 0 mm 3 mps 685 mmHg 31%
    11:00 +28°C° 0 mm 4 mps 685 mmHg 21%
    12:00 +28°C° 0 mm 4 mps 684 mmHg 19%
    13:00 +29°C° 0 mm 4 mps 683 mmHg 17%
    14:00 +30°C° 0 mm 3 mps 683 mmHg 15%
    15:00 +29°C° 0 mm 3 mps 683 mmHg 18%
    16:00 +29°C° 0 mm 3 mps 683 mmHg 20%
    17:00 +28°C° 0 mm 3 mps 682 mmHg 22%
    18:00 +26°C° 0 mm 3 mps 683 mmHg 28%
    19:00 +24°C° 0 mm 3 mps 683 mmHg 35%
    20:00 +21°C° 0 mm 3 mps 683 mmHg 41%
    21:00 +20°C° 0 mm 3 mps 683 mmHg 48%
    22:00 +20°C° 0 mm 3 mps 683 mmHg 56%
    23:00 +19°C° 0 mm 3 mps 683 mmHg 64%

    22 January, Monday

    Time Temperature Precipitation Wind Pressure Humidity
    00:00 +18°C° 0 mm 3 mps 683 mmHg 68%
    01:00 +17°C° 0 mm 3 mps 682 mmHg 73%
    02:00 +17°C° 0 mm 2 mps 682 mmHg 77%
    03:00 +16°C° 0 mm 2 mps 681 mmHg 77%
    04:00 +16°C° 0 mm 2 mps 681 mmHg 78%
    05:00 +16°C° 0 mm 2 mps 681 mmHg 79%
    06:00 +17°C° 0 mm 2 mps 682 mmHg 70%
    07:00 +18°C° 0 mm 2 mps 683 mmHg 61%
    08:00 +19°C° 0 mm 2 mps 684 mmHg 52%
    09:00 +23°C° 0 mm 2 mps 684 mmHg 41%
    10:00 +25°C° 0 mm 3 mps 684 mmHg 30%
    11:00 +27°C° 0 mm 3 mps 684 mmHg 19%
    12:00 +28°C° 0 mm 3 mps 684 mmHg 18%
    13:00 +29°C° 0 mm 3 mps 683 mmHg 17%
    14:00 +30°C° 0 mm 3 mps 682 mmHg 15%
    15:00 +29°C° 0 mm 3 mps 682 mmHg 19%
    16:00 +29°C° 0 mm 3 mps 682 mmHg 22%
    17:00 +28°C° 0 mm 3 mps 682 mmHg 25%
    18:00 +26°C° 0 mm 3 mps 682 mmHg 31%
    19:00 +24°C° 0 mm 3 mps 683 mmHg 38%
    20:00 +21°C° 0 mm 3 mps 683 mmHg 44%
    21:00 +21°C° 0 mm 3 mps 683 mmHg 49%
    22:00 +20°C° 0 mm 3 mps 683 mmHg 55%
    23:00 +19°C° 0 mm 3 mps 683 mmHg 60%
    Show more